Weather History for K96D - February, 2014

Change the Weather History Date:

Saturday, February 15, 2014

  Actual Average (KGAF) Record (KGAF)
Temperature  
Mean Temperature 1 °F -  
Max Temperature 6 °F 17 °F 42 °F (1981)
Min Temperature -4 °F 0 °F -30 °F (1967)
Degree Days  
Heating Degree Days 64    
Moisture  
Dew Point -1 °F    
Average Humidity 83    
Maximum Humidity 92    
Minimum Humidity 71    
Precipitation  
Precipitation 0.02 in - - ()
Sea Level Pressure  
Sea Level Pressure 29.94 in    
Wind  
Wind Speed 10 mph (NNW)    
Max Wind Speed 22 mph    
Max Gust Speed 28 mph    
Visibility 9 miles    
Events Snow    
Averages and records for this station are not official NWS values.
T = Trace of Precipitation, MM = Missing Value Source: NWS Daily Summary

Daily Weather History Graph

Daily Weather History Graph

Search for Another Location

Airport or City:

Trip Planner

Search our weather history database for the weather conditions in past years. The results will help you decide how hot, cold, wet, or windy it might be!

Date:

Astronomy

Feb. 15, 2014 Rise Set
Actual Time 7:39 AM CST 5:52 PM CST
Civil Twilight 7:07 AM CST 6:25 PM CST
Nautical Twilight 6:30 AM CST 7:02 PM CST
Astronomical Twilight 5:53 AM CST 7:38 PM CST
Moon 7:03 PM CST (2/15) 7:32 AM CST (2/15)
Length of Visible Light 11h 17m
Length of Day
10h 12m
Waxing Gibbous, 99% of the Moon is Illuminated
Feb 15
Waxing Gibbous
Feb 22
Last Quarter
Mar 1
New
Mar 8
First Quarter
Mar 16
Full

Hourly Weather History & Observations

Time (CST) Temp. Windchill Dew Point Humidity Pressure Visibility Wind Dir Wind Speed Gust Speed Precip Events Conditions
12:15 AM 1.4 °F -13.5 °F -0.4 °F 92% 29.74 in - SE 9.2 mph - N/A   Unknown
12:35 AM 1.4 °F -13.5 °F -0.4 °F 92% 29.73 in - SE 9.2 mph - N/A   Unknown
12:55 AM 3.2 °F -7.8 °F -0.4 °F 85% 29.74 in 10.0 mi ESE 5.8 mph - N/A   Overcast
1:15 AM 3.2 °F -7.8 °F -0.4 °F 85% 29.72 in 10.0 mi ESE 5.8 mph - N/A   Overcast
1:35 AM 1.4 °F -8.3 °F -0.4 °F 92% 29.72 in - ESE 4.6 mph - N/A   Overcast
1:55 AM 3.2 °F -7.8 °F -0.4 °F 85% 29.70 in - ESE 5.8 mph - N/A   Unknown
2:15 AM 1.4 °F -6.2 °F -0.4 °F 92% 29.71 in - SSE 3.5 mph - N/A   Overcast
2:35 AM 3.2 °F - -0.4 °F 85% 29.71 in - Calm Calm - N/A   Overcast
2:55 AM 3.2 °F - -0.4 °F 85% 29.71 in 10.0 mi Calm Calm - N/A   Overcast
3:15 AM 5.0 °F - -0.4 °F 78% 29.70 in - Calm Calm - N/A   Overcast
3:35 AM 5.0 °F - -0.4 °F 78% 29.69 in 10.0 mi Calm Calm - N/A   Overcast
3:55 AM 5.0 °F -2.1 °F 1.4 °F 85% 29.70 in 10.0 mi South 3.5 mph - N/A   Overcast
4:15 AM 5.0 °F -4.1 °F -0.4 °F 78% 29.69 in - SSE 4.6 mph - N/A   Overcast
4:35 AM 5.0 °F -5.6 °F 1.4 °F 85% 29.69 in - SSE 5.8 mph - N/A   Overcast
4:55 AM 5.0 °F -2.1 °F 1.4 °F 85% 29.69 in - South 3.5 mph - N/A   Overcast
5:15 AM 5.0 °F - 1.4 °F 85% 29.70 in - Calm Calm - N/A   Overcast
5:35 AM 5.0 °F - 1.4 °F 85% 29.71 in 10.0 mi Calm Calm - N/A   Overcast
5:55 AM 6.8 °F - 1.4 °F 79% 29.72 in 10.0 mi Calm Calm - N/A   Overcast
6:15 AM 6.8 °F -4.8 °F 3.2 °F 85% 29.72 in 10.0 mi NNW 6.9 mph - N/A   Overcast
6:35 AM 6.8 °F -6.9 °F 5.0 °F 92% 29.73 in 10.0 mi NNW 9.2 mph - N/A Snow Light Snow
6:55 AM 6.8 °F -9.3 °F 5.0 °F 92% 29.74 in 10.0 mi NNW 12.7 mph - N/A Snow Light Snow
7:15 AM 6.8 °F -10.0 °F 5.0 °F 92% 29.75 in 10.0 mi North 13.8 mph - N/A Snow Light Snow
7:35 AM 6.8 °F -11.8 °F 5.0 °F 92% 29.76 in 10.0 mi North 17.3 mph - N/A Snow Light Snow
7:55 AM 6.8 °F -11.8 °F 5.0 °F 92% 29.78 in 10.0 mi North 17.3 mph 20.7 mph N/A Snow Light Snow
8:15 AM 5.0 °F -14.7 °F 3.2 °F 92% 29.79 in 5.0 mi North 18.4 mph - N/A Snow Light Snow
8:35 AM 5.0 °F -14.7 °F 3.2 °F 92% 29.81 in 3.0 mi North 18.4 mph 21.9 mph N/A Snow Light Snow
8:55 AM 5.0 °F -14.2 °F 3.2 °F 92% 29.82 in 2.5 mi North 17.3 mph 20.7 mph N/A Snow Light Snow
9:15 AM 5.0 °F -15.2 °F 1.4 °F 85% 29.83 in 2.5 mi North 19.6 mph - N/A Snow Light Snow
9:35 AM 5.0 °F -14.7 °F 3.2 °F 92% 29.84 in 2.5 mi North 18.4 mph - 0.01 in Snow Light Snow
9:55 AM 5.0 °F -14.7 °F 3.2 °F 92% 29.85 in 3.0 mi North 18.4 mph 21.9 mph 0.02 in Snow Light Snow
10:15 AM 5.0 °F -15.7 °F 3.2 °F 92% 29.86 in 4.0 mi North 20.7 mph - N/A Snow Light Snow
10:35 AM 5.0 °F -16.2 °F 1.4 °F 85% 29.88 in 5.0 mi North 21.9 mph 27.6 mph N/A   Mostly Cloudy
10:55 AM 5.0 °F -15.7 °F 1.4 °F 85% 29.89 in 5.0 mi North 20.7 mph 25.3 mph N/A   Mostly Cloudy
11:15 AM 5.0 °F -14.7 °F 1.4 °F 85% 29.91 in 9.0 mi North 18.4 mph 24.2 mph N/A Snow Light Snow
11:35 AM 6.8 °F -11.8 °F 3.2 °F 85% 29.92 in 7.0 mi North 17.3 mph 25.3 mph N/A Snow Light Snow
11:55 AM 6.8 °F -10.0 °F 1.4 °F 79% 29.94 in 9.0 mi North 13.8 mph 26.5 mph N/A Snow Light Snow
12:15 PM 6.8 °F -11.8 °F 1.4 °F 79% 29.94 in 10.0 mi NNW 17.3 mph 21.9 mph N/A   Mostly Cloudy
12:35 PM 6.8 °F -11.3 °F 1.4 °F 79% 29.95 in 10.0 mi NNW 16.1 mph - N/A   Scattered Clouds
12:55 PM 6.8 °F -12.9 °F 1.4 °F 79% 29.96 in 10.0 mi North 19.6 mph 23.0 mph N/A   Scattered Clouds
1:15 PM 6.8 °F -12.9 °F 1.4 °F 79% 29.97 in 10.0 mi North 19.6 mph 25.3 mph N/A   Scattered Clouds
1:35 PM 6.8 °F -13.4 °F 1.4 °F 79% 29.98 in 9.0 mi NNW 20.7 mph 26.5 mph N/A   Mostly Cloudy
1:55 PM 6.8 °F -13.4 °F 1.4 °F 79% 29.98 in 10.0 mi North 20.7 mph 25.3 mph N/A   Mostly Cloudy
2:15 PM 6.8 °F -13.4 °F 1.4 °F 79% 30.00 in 10.0 mi North 20.7 mph 25.3 mph N/A   Mostly Cloudy
2:35 PM 6.8 °F -13.4 °F 1.4 °F 79% 30.01 in 7.0 mi North 20.7 mph 26.5 mph N/A   Mostly Cloudy
2:55 PM 6.8 °F -13.4 °F 1.4 °F 79% 30.03 in 8.0 mi NNW 20.7 mph 26.5 mph N/A   Mostly Cloudy
3:15 PM 5.0 °F -14.7 °F -0.4 °F 78% 30.03 in 8.0 mi NNW 18.4 mph - N/A   Mostly Cloudy
3:35 PM 5.0 °F -13.6 °F -0.4 °F 78% 30.05 in 10.0 mi NNW 16.1 mph 23.0 mph N/A   Mostly Cloudy
3:55 PM 5.0 °F -14.2 °F -0.4 °F 78% 30.07 in 10.0 mi NNW 17.3 mph - N/A   Mostly Cloudy
4:15 PM 5.0 °F -13.6 °F -0.4 °F 78% 30.08 in 10.0 mi NNW 16.1 mph - N/A   Partly Cloudy
4:35 PM 5.0 °F -14.2 °F -0.4 °F 78% 30.10 in 10.0 mi NNW 17.3 mph - N/A   Partly Cloudy
4:55 PM 5.0 °F -13.0 °F -0.4 °F 78% 30.11 in 10.0 mi NNW 15.0 mph - N/A   Clear
5:15 PM 5.0 °F -13.0 °F -2.2 °F 72% 30.12 in 10.0 mi NNW 15.0 mph 21.9 mph N/A   Clear
5:35 PM 3.2 °F -15.3 °F -2.2 °F 78% 30.12 in 10.0 mi NNW 15.0 mph - N/A   Clear
5:55 PM 1.4 °F -16.1 °F -4.0 °F 78% 30.15 in 10.0 mi NW 12.7 mph - N/A   Clear
6:15 PM 1.4 °F -18.2 °F -4.0 °F 78% 30.16 in 10.0 mi NNW 16.1 mph - N/A   Clear
6:35 PM -0.4 °F -16.7 °F -4.0 °F 85% 30.16 in 10.0 mi NW 10.4 mph - N/A   Scattered Clouds
6:55 PM -0.4 °F -16.7 °F -5.8 °F 78% 30.17 in 10.0 mi NW 10.4 mph - N/A   Mostly Cloudy
7:15 PM -0.4 °F -14.7 °F -7.6 °F 72% 30.17 in 10.0 mi NNW 8.1 mph - N/A   Mostly Cloudy
7:35 PM -0.4 °F -15.7 °F -7.6 °F 72% 30.18 in 10.0 mi NNW 9.2 mph - N/A   Mostly Cloudy
7:55 PM -0.4 °F -16.7 °F -7.6 °F 72% 30.18 in 10.0 mi NW 10.4 mph - N/A   Mostly Cloudy
8:15 PM -0.4 °F -14.7 °F -7.6 °F 72% 30.17 in 10.0 mi NNW 8.1 mph - N/A   Mostly Cloudy
8:35 PM -2.2 °F -14.2 °F -9.4 °F 71% 30.17 in 10.0 mi NW 5.8 mph - N/A   Mostly Cloudy
8:55 PM -4.0 °F -16.3 °F -9.4 °F 78% 30.18 in - WNW 5.8 mph - N/A   Mostly Cloudy
9:15 PM -2.2 °F -15.6 °F -7.6 °F 78% 30.20 in 10.0 mi WNW 6.9 mph - N/A   Overcast
9:35 PM -0.4 °F -13.4 °F -5.8 °F 78% 30.21 in 10.0 mi NW 6.9 mph - N/A   Overcast
9:55 PM -0.4 °F -17.6 °F -4.0 °F 85% 30.21 in 10.0 mi NNW 11.5 mph - N/A   Overcast
10:15 PM 1.4 °F -12.5 °F -4.0 °F 78% 30.21 in 10.0 mi NW 8.1 mph - N/A   Overcast
10:35 PM 1.4 °F -11.3 °F -4.0 °F 78% 30.21 in 10.0 mi NNW 6.9 mph - N/A   Mostly Cloudy
10:55 PM -0.4 °F - -4.0 °F 85% 30.21 in 10.0 mi Calm Calm - N/A   Mostly Cloudy
11:15 PM -0.4 °F - -4.0 °F 85% 30.18 in 10.0 mi Calm Calm - N/A   Mostly Cloudy
11:35 PM -0.4 °F -8.3 °F -4.0 °F 85% 30.17 in 10.0 mi NNW 3.5 mph - N/A   Mostly Cloudy
11:55 PM -0.4 °F -12.0 °F -4.0 °F 85% 30.18 in 10.0 mi West 5.8 mph - N/A   Overcast